When you browse on this site, cookies collect data to enhance your experience and personalize the content and advertising you see.
Visit our Privacy Policy to learn more. By continuing to use the site, you agree to this use of cookies and data.
  • In Spain
  • List of Countries
  • For 7 days
  • Water Temperature
  • Weather Map
  • Weather Widgets
  • user-avatar
    Login

    Hourly Weather Brasília

    Today, 31 May, Sunday

    Time Temperature Precipitation Wind Pressure Humidity
    00:00 +14°C° 0 mm 1 mps 667 mmHg 83%
    01:00 +14°C° 0 mm 1 mps 666 mmHg 84%
    02:00 +14°C° 0 mm 1 mps 666 mmHg 84%
    03:00 +14°C° 0 mm 1 mps 666 mmHg 84%
    04:00 +13°C° 0 mm 1 mps 666 mmHg 85%
    05:00 +13°C° 0 mm 1 mps 666 mmHg 86%
    06:00 +13°C° 0 mm 1 mps 666 mmHg 86%
    07:00 +15°C° 0 mm 1 mps 667 mmHg 80%
    08:00 +18°C° 0 mm 1 mps 668 mmHg 74%
    09:00 +18°C° 0 mm 2 mps 669 mmHg 68%
    10:00 +20°C° 0 mm 2 mps 669 mmHg 61%
    11:00 +23°C° 0 mm 1 mps 669 mmHg 55%
    12:00 +24°C° 0 mm 1 mps 669 mmHg 48%
    13:00 +25°C° 0 mm 1 mps 668 mmHg 46%
    14:00 +25°C° 0 mm 1 mps 668 mmHg 45%
    15:00 +26°C° 0 mm 1 mps 668 mmHg 43%
    16:00 +24°C° 0 mm 1 mps 667 mmHg 50%
    17:00 +22°C° 0 mm 1 mps 667 mmHg 57%
    18:00 +18°C° 0 mm 0 mps 666 mmHg 64%
    19:00 +19°C° 0 mm 1 mps 666 mmHg 67%
    20:00 +18°C° 0 mm 1 mps 666 mmHg 71%
    21:00 +18°C° 0 mm 1 mps 666 mmHg 75%
    22:00 +16°C° 0 mm 1 mps 666 mmHg 79%
    23:00 +16°C° 0 mm 1 mps 666 mmHg 83%

    Tomorrow, 1 June, Monday

    Time Temperature Precipitation Wind Pressure Humidity
    00:00 +15°C° 0 mm 1 mps 666 mmHg 86%
    01:00 +15°C° 0 mm 1 mps 666 mmHg 87%
    02:00 +15°C° 0 mm 1 mps 666 mmHg 88%
    03:00 +15°C° 0 mm 1 mps 666 mmHg 89%
    04:00 +14°C° 0 mm 1 mps 666 mmHg 89%
    05:00 +14°C° 0 mm 1 mps 666 mmHg 89%
    06:00 +14°C° 0 mm 1 mps 666 mmHg 89%
    07:00 +16°C° 0 mm 1 mps 667 mmHg 82%
    08:00 +19°C° 0 mm 1 mps 667 mmHg 75%
    09:00 +21°C° 0 mm 1 mps 668 mmHg 68%
    10:00 +22°C° 0 mm 1 mps 668 mmHg 61%
    11:00 +24°C° 0 mm 1 mps 668 mmHg 54%
    12:00 +26°C° 0 mm 1 mps 668 mmHg 47%
    13:00 +26°C° 0 mm 1 mps 668 mmHg 46%
    14:00 +26°C° 0 mm 1 mps 667 mmHg 46%
    15:00 +26°C° 0 mm 2 mps 667 mmHg 45%
    16:00 +24°C° 0 mm 1 mps 666 mmHg 52%
    17:00 +22°C° 0 mm 1 mps 666 mmHg 58%
    18:00 +18°C° 0 mm 0 mps 665 mmHg 65%
    19:00 +18°C° 0 mm 0 mps 666 mmHg 67%
    20:00 +17°C° 0 mm 0 mps 666 mmHg 69%
    21:00 +17°C° 0 mm 0 mps 666 mmHg 71%
    22:00 +16°C° 0 mm 0 mps 666 mmHg 73%
    23:00 +16°C° 0 mm 0 mps 666 mmHg 75%

    Day after tomorrow, 2 June, Tuesday

    Time Temperature Precipitation Wind Pressure Humidity
    00:00 +15°C° 0 mm 0 mps 667 mmHg 77%
    01:00 +15°C° 0 mm 0 mps 666 mmHg 78%
    02:00 +15°C° 0 mm 0 mps 666 mmHg 79%
    03:00 +15°C° 0 mm 0 mps 666 mmHg 81%
    04:00 +14°C° 0 mm 0 mps 666 mmHg 82%
    05:00 +14°C° 0 mm 0 mps 666 mmHg 83%
    06:00 +14°C° 0 mm 0 mps 666 mmHg 84%
    07:00 +18°C° 0 mm 1 mps 667 mmHg 78%
    08:00 +20°C° 0 mm 1 mps 667 mmHg 71%
    09:00 +22°C° 0 mm 1 mps 668 mmHg 65%
    10:00 +23°C° 0 mm 1 mps 668 mmHg 60%
    11:00 +25°C° 0 mm 2 mps 668 mmHg 54%
    12:00 +26°C° 0 mm 2 mps 668 mmHg 49%
    13:00 +26°C° 0 mm 2 mps 668 mmHg 48%
    14:00 +26°C° 0 mm 2 mps 667 mmHg 48%
    15:00 +27°C° 0 mm 2 mps 667 mmHg 47%
    16:00 +25°C° 0 mm 1 mps 666 mmHg 52%
    17:00 +23°C° 0 mm 1 mps 666 mmHg 58%
    18:00 +21°C° 0 mm 1 mps 665 mmHg 64%
    19:00 +19°C° 0 mm 0 mps 666 mmHg 66%
    20:00 +18°C° 0 mm 0 mps 666 mmHg 67%
    21:00 +17°C° 0 mm 0 mps 666 mmHg 69%
    22:00 +17°C° 0 mm 0 mps 666 mmHg 71%
    23:00 +17°C° 0 mm 0 mps 666 mmHg 73%

    3 June, Wednesday

    Time Temperature Precipitation Wind Pressure Humidity
    00:00 +16°C° 0 mm 0 mps 666 mmHg 75%
    01:00 +16°C° 0 mm 0 mps 666 mmHg 76%
    02:00 +16°C° 0 mm 0 mps 666 mmHg 77%
    03:00 +15°C° 0 mm 0 mps 666 mmHg 79%
    04:00 +16°C° 0 mm 1 mps 666 mmHg 81%
    05:00 +16°C° 0 mm 1 mps 666 mmHg 82%
    06:00 +16°C° 0 mm 1 mps 666 mmHg 84%
    07:00 +18°C° 0 mm 1 mps 667 mmHg 78%
    08:00 +19°C° 0 mm 2 mps 668 mmHg 73%
    09:00 +21°C° 0 mm 2 mps 669 mmHg 67%
    10:00 +24°C° 0 mm 2 mps 669 mmHg 61%
    11:00 +25°C° 0 mm 2 mps 669 mmHg 55%
    12:00 +27°C° 0 mm 2 mps 669 mmHg 48%
    13:00 +27°C° 0 mm 2 mps 668 mmHg 47%
    14:00 +27°C° 0 mm 2 mps 668 mmHg 45%
    15:00 +28°C° 0 mm 2 mps 667 mmHg 43%
    16:00 +26°C° 0 mm 2 mps 667 mmHg 51%
    17:00 +24°C° 0 mm 2 mps 666 mmHg 58%
    18:00 +21°C° 0 mm 2 mps 666 mmHg 65%
    19:00 +20°C° 0 mm 2 mps 666 mmHg 71%
    20:00 +19°C° 0 mm 2 mps 667 mmHg 77%
    21:00 +19°C° 0 mm 2 mps 667 mmHg 82%
    22:00 +18°C° 0 mm 2 mps 667 mmHg 83%
    23:00 +18°C° 0 mm 2 mps 667 mmHg 83%

    4 June, Thursday

    Time Temperature Precipitation Wind Pressure Humidity
    00:00 +18°C° 0 mm 2 mps 667 mmHg 84%
    01:00 +17°C° 0 mm 2 mps 667 mmHg 83%
    02:00 +17°C° 0 mm 2 mps 667 mmHg 82%
    03:00 +17°C° 0 mm 2 mps 666 mmHg 82%
    04:00 +17°C° 0 mm 2 mps 666 mmHg 82%
    05:00 +17°C° 0 mm 2 mps 667 mmHg 83%
    06:00 +16°C° 0 mm 2 mps 667 mmHg 83%
    07:00 +18°C° 0 mm 3 mps 667 mmHg 78%
    08:00 +19°C° 0 mm 3 mps 668 mmHg 73%
    09:00 +21°C° 0 mm 4 mps 669 mmHg 68%
    10:00 +22°C° 0 mm 4 mps 669 mmHg 65%
    11:00 +25°C° 0 mm 4 mps 669 mmHg 61%
    12:00 +26°C° 0 mm 4 mps 669 mmHg 58%
    13:00 +27°C° 0 mm 4 mps 668 mmHg 57%
    14:00 +27°C° 0 mm 3 mps 668 mmHg 56%
    15:00 +27°C° 0 mm 3 mps 667 mmHg 55%
    16:00 +25°C° 0 mm 3 mps 667 mmHg 62%
    17:00 +24°C° 0 mm 2 mps 667 mmHg 69%
    18:00 +21°C° 0 mm 2 mps 667 mmHg 77%
    19:00 +21°C° 0 mm 2 mps 667 mmHg 80%
    20:00 +20°C° 0 mm 2 mps 667 mmHg 84%
    21:00 +19°C° 0 mm 2 mps 667 mmHg 87%
    22:00 +19°C° 0 mm 2 mps 667 mmHg 88%
    23:00 +19°C° 0 mm 2 mps 667 mmHg 89%

    5 June, Friday

    Time Temperature Precipitation Wind Pressure Humidity
    00:00 +18°C° 0 mm 2 mps 668 mmHg 90%
    01:00 +18°C° 0 mm 3 mps 667 mmHg 91%
    02:00 +18°C° 0 mm 3 mps 667 mmHg 93%
    03:00 +18°C° 0 mm 3 mps 667 mmHg 94%
    04:00 +17°C° 0 mm 3 mps 667 mmHg 94%
    05:00 +17°C° 0 mm 3 mps 667 mmHg 94%
    06:00 +17°C° 0 mm 2 mps 667 mmHg 94%
    07:00 +18°C° 0 mm 3 mps 668 mmHg 89%
    08:00 +19°C° 0 mm 4 mps 668 mmHg 84%
    09:00 +20°C° 0 mm 4 mps 669 mmHg 79%
    10:00 +21°C° 0 mm 4 mps 669 mmHg 76%
    11:00 +22°C° 0 mm 4 mps 669 mmHg 73%
    12:00 +23°C° 0 mm 4 mps 669 mmHg 69%
    13:00 +23°C° 0 mm 4 mps 669 mmHg 68%
    14:00 +23°C° 0 mm 4 mps 668 mmHg 66%
    15:00 +25°C° 0 mm 3 mps 668 mmHg 65%
    16:00 +22°C° 0 mm 3 mps 668 mmHg 70%
    17:00 +21°C° 0 mm 3 mps 667 mmHg 76%
    18:00 +19°C° 0 mm 3 mps 667 mmHg 82%
    19:00 +19°C° 0 mm 2 mps 667 mmHg 84%
    20:00 +18°C° 0 mm 2 mps 668 mmHg 85%
    21:00 +18°C° 0 mm 2 mps 668 mmHg 87%
    22:00 +17°C° 0 mm 2 mps 668 mmHg 87%
    23:00 +17°C° 0 mm 2 mps 668 mmHg 88%
    Show more